Regional Weather Roundup
Issued by NWS Sioux Falls, SD

Home | Current Version | Previous Version | Graphics & Text | Print | Product List | Glossary Off
Versions: 1 2 3 4 5 6 7 8 9 10 11 12 13 14 15 16 17 18 19 20 21 22 23 24 25 26 27 28 29 30 31 32 33 34 35 36 37 38 39 40 41 42 43 44 45 46 47 48 49 50

000
ASUS43 KFSD 280410
RWRFSD

WEATHER ROUNDUP FOR SE SOUTH DAKOTA/SW MINNESOTA/NW IOWA
NATIONAL WEATHER SERVICE SIOUX FALLS SD
1100 PM CDT TUE JUN 27 2017

NOTE: "FAIR" INDICATES FEW OR NO CLOUDS BELOW 12,000 FEET WITH NO
SIGNIFICANT WEATHER AND OR OBSTRUCTIONS TO VISIBILITY.


SDZ038>040-050-052>070-280500-
SOUTHEAST SOUTH DAKOTA

CITY           SKY/WX    TMP DP  RH WIND       PRES   REMARKS
BROOKINGS      CLOUDY    72  61  68 S13       29.70
CHAMBERLAIN    CLOUDY    73  58  60 SW7       29.63F
HURON          CLOUDY    76  66  71 S13       29.61F
MADISON        CLOUDY    72  66  83 S17       29.69F
MITCHELL       CLOUDY    78  66  66 S14G23    29.62F
SIOUX FALLS    CLOUDY    74  64  71 S14       29.69F THUNDER
WINNER         FAIR      74  54  49 NW12G31   29.64F
YANKTON        CLOUDY    72  66  83 SE13G22   29.61F THUNDER
$$

MNZ071-072-080-081-089-090-097-098-280500-
SOUTHWEST MINNESOTA

CITY           SKY/WX    TMP DP  RH WIND       PRES   REMARKS
FAIRMONT       CLOUDY    69  53  56 SE16      29.81S
JACKSON        CLOUDY    70  55  60 S14G21    29.80S
LUVERNE        CLOUDY    72  59  64 S14       29.72F
MARSHALL       CLOUDY    71  56  58 SE12      29.73F
MONTEVIDEO     CLOUDY    72  48  43 S10       29.73F
PIPESTONE      CLOUDY    73  61  64 S16       29.72F THUNDER
REDWOOD FALLS  CLOUDY    71  48  43 SE15      29.76S
TRACY          CLOUDY    72  58  61 SE12      29.74S
WINDOM         PTCLDY    72  54  53 SE14G20   29.77F
WORTHINGTON    CLOUDY    72  60  66 SE16G23   29.75F
$$

IAZ001>003-012>014-020>022-031-032-NEZ013-014-SDZ071-280500-
NORTHWEST IOWA

CITY           SKY/WX    TMP DP  RH WIND       PRES   REMARKS
CHEROKEE       MOCLDY    73  61  67 S17G25    29.75F
DENISON        CLOUDY    73  63  68 S21G28    29.81S
ESTHERVILLE    CLOUDY    67  55  65 SE13      29.79S
LE MARS        CLOUDY    73  63  68 SE15G24   29.71F
ORANGE CITY    CLOUDY    72  64  78 SE16      29.72F
SHELDON        CLOUDY    72  61  68 SE22G30   29.71F
SIOUX CITY     CLOUDY    75  65  70 S20G32    29.71F
SPENCER        CLOUDY    72  59  63 S17       29.79S
STORM LAKE     CLOUDY    72  61  68 S17G25    29.80S
$$

ABBREVIATIONS USED IN REMARKS
   TC - TEMPERATURE IN CELSIUS
  WCI - WIND CHILL INDEX
   HX - HEAT INDEX
  VSB - VISIBILITY




USA.gov is the U.S. government's official web portal to all federal, state and local government web resources and services.